{"data":{"norad_id":66993,"epoch":"2026-09-20T22:47:55.365504Z","epoch_age_seconds":73129,"freshness":"FRESH","line1":"1 66993U 25292A   26263.94994636  .00002368  00000+0  16236-3 0  9991","line2":"2 66993  97.6242 338.7329 0015575  37.8651 322.3669 15.06907687 42863","mean_motion":15.06907687,"eccentricity":0.0015575,"inclination_deg":97.6242,"raan_deg":338.7329,"arg_perigee_deg":37.8651,"mean_anomaly_deg":322.3669,"bstar":0.00016236,"rev_number":4286,"period_min":95.559934588083,"perigee_km":534.87219966307,"apogee_km":556.43981488073,"semimajor_km":6923.7930072719,"source":"CELESTRAK","updated_at":"2026-09-21T09:00:16.364648Z"}}